COSMOS 1275 DEB

Satellite information

Favourite Embed

Satellite Type and Status

DEBRISIN ORBIT

Key statistics

Satellite COSMOS 1275 DEB at a glance.

Uptime

16263

Days in orbit

Revolutions

≈ 14.2

Per day

Orbit

LEO

Low Earth Orbit

Inclination

82.8

Latest

Satellite identification and parameters

Extended collection of information and parameters for COSMOS 1275 DEB.

Object identification

Identified? True

Debris? True

Object name: COSMOS 1275 DEB

International designator: 1981-053UB

Object number (NORAD): 42211

Object ID (CCSDS): 42211

Country: COMMONWEALTH OF INDEPENDENT STATES (CIS)

Current information (Y/N): Y

RCS size: SMALL

Orbital parameters

Period: 101.252 minutes

Inclination: 82.8398 deg

SMA: 7196.09 km

Apoapsis: 847.574 km

Periapsis: 788.336 km

RAAN: 194.6988 deg

Eccentricy: 0.00411598

Argument of periapsis: 83.5031 deg

Mean anomaly: 277.0835 deg

Mean motion: 14.22190866 rev/day

Mean motion (dot): 0.0000466 rev/day2

B* drag term: 0.0020764764 1/REarth

Two-line elements (TLE)

Creation date: Dec. 12, 2025, 10:14 a.m.

Reference frame: TEME

Reference center: EARTH

Epoch: Dec. 12, 2025, 7:10 a.m. UTC

TLE line 0: 0 COSMOS 1275 DEB

TLE line 1: 1 42211U 81053UB 25346.29864796 .00004660 00000-0 20765-2 0 9996

TLE line 2: 2 42211 82.8398 194.6988 0041160 83.5031 277.0835 14.22190866 76999

Live tracking on map

Real-time ground track for satellite COSMOS 1275 DEB.

In-orbit conjunctions

A list of the most updated potential collisions computed for object COSMOS 1275 DEB.

Target Orbit TCA Probability of collision Miss distance Type
CZ-6A DEB LEO 2024-11-16 10:27:40 0.0001382344 669.0 (m) DEBRIS
FENGYUN 1C DEB SSO 2024-11-09 00:57:10 0.0001413062 845.0 (m) DEBRIS
BPA-2/SL-24 R/B SSO 2024-08-11 14:38:49 0.0001367427 325.0 (m) ROCKET BODY

Associated space launch

Navigation satellite providing location information for the Tsiklon-B navigation system

COSMOS 1275 DEB was lifted into orbit during the mission ‘Kosmos-3M | Parus 27’, on board a Kosmos-3M space rocket.

The launch took place on June 4, 1981, 3:41 p.m. from 132/2.

For more information about the launch, click the button.

Launch to space Kosmos-3M | Parus 27
Kosmos-3M | Parus 27

Agency: N/A

Status: Launch Successful

Launch date: June 4, 1981, 3:41 p.m. UTC

Rocket: Kosmos-3M

Launch pad: 132/2

Location: Plesetsk Cosmodrome, Russian Federation

...

Latest news about this satellite

There are no fresh news available about this satellite. Check back as we update our databases every day.


Newsletter sign-up

Weekly statistics, charts and insights to help you stay on top of the space industry.